User: anonymous   Login
Location: Unspecified
(0.0000°N, 0.0000°E)
Time: 06:53:52
(UTC+00:00)
Language:

STARLINK-34985 - Orbit

View from above orbital plane
View from above orbital plane
View from above satellite
View from above satellite

Ground track
Ground track

The orbit is defined by the following mean orbital elements,

1 65379U          26145.23306126 +.00000000 +00000-0 +23873-3 0 00000
2 65379  97.4472  16.5395 0002460  77.5274 282.6229 15.05657563    02
Epoch (UTC): 25 May 2026 05:35:36
Eccentricity: 0.0002460
inclination: 97.4472°
perigee height: 548 km
apogee height: 551 km
right ascension of ascending node: 16.5395°
argument of perigee: 77.5274°
revolutions per day: 15.05657563
mean anomaly at epoch: 282.6229°

The dashed part of the orbit path shows where the satellite is in the earth's shadow,  

DLR